User: anonymous   Login
Location: Unspecified
(0.0000°N, 0.0000°E)
Time: 00:42:08
(UTC+00:00)
Language:

AEROCUBE 2 - Orbit

View from above orbital plane
View from above orbital plane
View from above satellite
View from above satellite

Ground track
Ground track

The orbit data is extracted from the following two-line orbital elements,

1 31133U 07012R   17206.57345199 +.00000092 +00000-0 +28766-4 0  9994
2 31133 098.0324 161.1395 0081458 020.1771 340.2617 14.58867746546058
Epoch (UTC): 25 July 2017 13:45:46
Eccentricity: 0.0081458
inclination: 98.0324°
perigee height: 639 km
apogee height: 754 km
right ascension of ascending node: 161.1395°
argument of perigee: 20.1771°
revolutions per day: 14.58867746
mean anomaly at epoch: 340.2617°
orbit number at epoch: 54605

The dashed part of the orbit path shows where the satellite is in the earth's shadow,  

DLR